Tracking 25193 objects as of 19-Jan-2022
HD Live streaming from Space Station
objects crossing your sky now

INTERCOSMOS 25

Track INTERCOSMOS 25 now!
10-day predictions
INTERCOSMOS 25 is classified as:


NORAD ID: 21819
Int'l Code: 1991-086A
Perigee: 446.2 km
Apogee: 2,881.0 km
Inclination: 82.6 °
Period: 119.5 minutes
Semi major axis: 8034 km
RCS: 7.3989 m2 (large)
Launch date: December 18, 1991
Source: Commonwealth of Independent States (former USSR) (CIS)
Launch site: PLESETSK MISSILE AND SPACE COMPLEX (PKMTR)
aabbcc
Your satellite tracking list
Your tracking list is empty




NASA's NSSDC Master Catalog

Two Line Element Set (TLE):
1 21819U 91086A   22018.75181202  .00000450  00000-0  83456-4 0  9993
2 21819  82.5804 138.5267 1515223 115.1608 261.4137 12.05465322314218
Source of the keplerian elements: AFSPC